Regional Weather Roundup
Issued by NWS

Home |  Current Version |  Previous Version |  Graphics & Text |  Print | Product List |  Glossary On
Versions: 1 2 3 4 5 6 7 8 9 10 11 12 13 14 15 16 17 18 19 20 21 22 23 24 25 26 27 28 29 30 31 32 33 34 35 36 37 38 39 40 41 42 43 44 45 46 47 48 49 50
321
ASUS43 KDTX 240601
RWRMI
MICHIGAN HOURLY REGIONAL WEATHER ROUNDUP
NATIONAL WEATHER SERVICE DETROIT/PONTIAC MI
200 AM EDT WED JUL 24 2024

NOTE: "FAIR" INDICATES FEW OR NO CLOUDS BELOW 12,000 FEET WITH NO
SIGNIFICANT WEATHER AND/OR OBSTRUCTION TO VISIBILITY.

MIZ047>049-052>055-059>063-066>070-074>076-081>083-240700-
SOUTHEAST LOWER MICHIGAN

CITY           SKY/WX    TMP DP  RH WIND       PRES   REMARKS
ADRIAN         PTCLDY    69  65  86 W6        30.04S FOG     TC  21
6HR MIN TEMP:  68; 6HR MAX TEMP:  79;

ALMA           MOCLDY    66  66 100 SW6       29.99S TC  19
ANN ARBOR      MOCLDY    66  64  93 CALM      30.02S TC  19
BAD AXE        CLOUDY    67  65  95 S6        29.98F TC  19
6HR MIN TEMP:  67; 6HR MAX TEMP:  74;

CARO           CLOUDY    67  66  99 S3        29.98S TC  19
DETROIT CITY   MOCLDY    70  66  87 CALM      30.02S TC  21
6HR MIN TEMP:  67; 6HR MAX TEMP:  74;

DETROIT        MOCLDY    67  64  90 S3        30.02F TC  19
6HR MIN TEMP:  67; 6HR MAX TEMP:  79; 6HR PCP:  0.02;

FLINT          MOCLDY    67  65  93 S5        30.01F TC  19
6HR MIN TEMP:  66; 6HR MAX TEMP:  69; 6HR PCP:  0.53;

GROSSE ILE     MOCLDY    68  62  81 CALM      30.01F TC  20
6HR MIN TEMP:  68; 6HR MAX TEMP:  78;

HILLSDALE      MOCLDY    68  66  94 S5        30.04F TC  20
6HR MIN TEMP:  67; 6HR MAX TEMP:  74;

HOWELL         MOCLDY    67  65  93 CALM      30.01F TC  20
6HR MIN TEMP:  65; 6HR MAX TEMP:  71; 6HR PCP:  0.33;


CITY           SKY/WX    TMP DP  RH WIND       PRES   REMARKS
JACKSON        MOCLDY    67  64  90 SW7       30.03S TC  19
6HR MIN TEMP:  67; 6HR MAX TEMP:  75; 6HR PCP:  0.01;

LAMBERTVILLE   CLEAR     72  65  78 SW3       30.02F TC  22
6HR MIN TEMP:  71; 6HR MAX TEMP:  80;

LANSING        MOCLDY    68  66  93 SW8       30.01F TC  20
6HR MIN TEMP:  68; 6HR MAX TEMP:  71; 6HR PCP: TRACE;

LAPEER         HVY RAIN  69  69 100 SE7       30.01F TC  21
6HR MIN TEMP:  69; 6HR MAX TEMP:  78; 6HR PCP:  0.26;

MASON          MOCLDY    68  65  88 SW3       30.01F TC  20
6HR MIN TEMP:  67; 6HR MAX TEMP:  75;

MONROE         PTCLDY    66  65  94 CALM      30.02S TC  19
6HR MIN TEMP:  66; 6HR MAX TEMP:  79;

MT. CLEMENS    MOCLDY    69  65  88 CALM      29.98S TC  21
6HR MIN TEMP:  66; 6HR MAX TEMP:  74; 6HR PCP:  0.44;

PONTIAC        LGT RAIN  67  64  90 S3        30.01F TC  19
6HR MIN TEMP:  67; 6HR MAX TEMP:  79; 6HR PCP:  0.27;

PORT HOPE        N/A     70  65  84 SW5       29.96S TC  21
6HR MIN TEMP:  70; 6HR MAX TEMP:  74; 6HR PCP:  0.02;

PORT HURON     MOCLDY    64  63  94 CALM      30.01S TC  18
TRI CITIES     MOCLDY    68  65  90 SW6       29.99S TC  20
6HR MIN TEMP:  68; 6HR MAX TEMP:  72; 6HR PCP:  0.01;

MIDLAND        MOCLDY    68  64  88 SW6       29.97F TC  20
TROY           MOCLDY    67  65  93 SW3       30.03F TC  19
SAGINAW HB     MOCLDY    68  64  88 S5        29.98R TC  20
6HR MIN TEMP:  67; 6HR MAX TEMP:  74;

$$
MIZ043>046-050>051-056>058-064>065-071>073-077>080-240700-
SOUTHWEST LOWER MICHIGAN

CITY           SKY/WX    TMP DP  RH WIND       PRES   REMARKS
BATTLE CREEK   MOCLDY    70  64  81 SW8       30.04R TC  21
6HR MIN TEMP:  69; 6HR MAX TEMP:  77; 6HR PCP: TRACE;

BENTON HARBOR  CLOUDY    72  68  87 VRB3      30.04S TC  22
6HR MIN TEMP:  70; 6HR MAX TEMP:  81; 6HR PCP:  0.10;

BIG RAPIDS     CLOUDY    67  65  90 W9        30.01S TC  20
6HR MIN TEMP:  67; 6HR MAX TEMP:  70; 6HR PCP:  0.03;

COLDWATER      MOCLDY    67  66  96 CALM      30.04S TC  20
6HR MIN TEMP:  67; 6HR MAX TEMP:  75;

FREMONT        CLOUDY    66  64  90 NW7       30.03R TC  19
6HR MIN TEMP:  66; 6HR MAX TEMP:  73;

HOLLAND        MOCLDY    69  65  86 NW7       30.03S TC  21
6HR MIN TEMP:  69; 6HR MAX TEMP:  78; 6HR PCP:  0.01;

GRAND RAPIDS   MOCLDY    70  68  93 SW7       30.01F TC  21
6HR MIN TEMP:  69; 6HR MAX TEMP:  78; 6HR PCP:  0.23;

IONIA          CLOUDY    69  69 100 SW7       30.00F TC  21
6HR MIN TEMP:  68; 6HR MAX TEMP:  76; 6HR PCP:  0.02;

KALAMAZOO      MOCLDY    70  67  90 W7        30.04R TC  21
6HR MIN TEMP:  70; 6HR MAX TEMP:  76; 6HR PCP:  0.05;

LUDINGTON      CLOUDY    65  62  90 N3        30.04S TC  18
6HR MIN TEMP:  64; 6HR MAX TEMP:  72;

MARSHALL       MOCLDY    67  64  89 W5        30.03F TC  20
6HR MIN TEMP:  67; 6HR MAX TEMP:  76;

MOUNT PLEASANT PTCLDY    67  66  94 CALM      29.97F TC  20
6HR MIN TEMP:  67; 6HR MAX TEMP:  70;

MUSKEGON       MOCLDY    68  62  81 N9        30.04R TC  20
6HR MIN TEMP:  68; 6HR MAX TEMP:  76;

SOUTH HAVEN    CLOUDY    70  69  97 NW3       30.04S TC  21
$$
MIZ016>042-240700-
NORTHERN LOWER MICHIGAN

CITY           SKY/WX    TMP DP  RH WIND       PRES   REMARKS
ALPENA         RAIN      63  62  97 NE13      29.98S FOG     TC  17
6HR MIN TEMP:  63; 6HR MAX TEMP:  69; 6HR PCP:  2.33;

BEAVER ISLAND  CLOUDY    62  62 100 N5        30.06S TC  17
6HR MIN TEMP:  62; 6HR MAX TEMP:  64;

BELLAIRE       CLOUDY    63  60  91 N5        30.01S TC  17
6HR MIN TEMP:  63; 6HR MAX TEMP:  66;

CADILLAC       CLOUDY    63  63 100 NW7       30.01F FOG     TC  17
6HR MIN TEMP:  63; 6HR MAX TEMP:  68;

CHARLEVOIX     CLOUDY    65  63  93 NE6       30.03S TC  18
6HR MIN TEMP:  63; 6HR MAX TEMP:  66;

CHEBOYGAN      LGT RAIN  64  63  94 NE8       30.01F TC  18
FRANKFORT      MOCLDY    65  61  85 CALM      30.04S TC  19
GAYLORD        CLOUDY    63  59  87 N5        30.02R TC  17
6HR MIN TEMP:  63; 6HR MAX TEMP:  67; 6HR PCP:  0.20;

GRAYLING       CLOUDY    64  63  96 NE7       29.98S TC  18
6HR MIN TEMP:  64; 6HR MAX TEMP:  66; 6HR PCP:  0.02;

HARBOR SPRINGS CLOUDY    63  61  93 N5        30.02S TC  17
MANISTEE       CLOUDY    65  65 100 NW3       30.03S TC  18
OSCODA         CLOUDY    67  65  94 CALM      29.96F TC  19
6HR MIN TEMP:  67; 6HR MAX TEMP:  75; 6HR PCP:  0.22;

PELLSTON       LGT RAIN  63  61  93 N5        30.03S TC  17
6HR MIN TEMP:  63; 6HR MAX TEMP:  66; 6HR PCP:  0.51;

ROGERS CITY    LGT RAIN  64  61  91 NE8       30.01F TC  18
TRAVERSE CITY  CLOUDY    67  63  87 N6        30.00S TC  19
6HR MIN TEMP:  66; 6HR MAX TEMP:  69; 6HR PCP:  0.03;

$$
MIZ007>008-015-240700-
EASTERN UPPER MICHIGAN

CITY           SKY/WX    TMP DP  RH WIND       PRES   REMARKS
KINROSS        CLOUDY    59  58  96 N8        30.06S TC  15
6HR MIN TEMP:  59; 6HR MAX TEMP:  62; 6HR PCP:  0.04;

MACKINAC ISLAN CLOUDY    62  62 100 N8        30.04S TC  17
6HR MIN TEMP:  62; 6HR MAX TEMP:  64; 6HR PCP:  0.14;

S. S. MARIE    RAIN      61  59  93 N6        30.05F FOG     TC  16
6HR MIN TEMP:  61; 6HR MAX TEMP:  62; 6HR PCP:  0.12;

$$
MIZ004>006-011>014-085-240700-
CENTRAL UPPER MICHIGAN

CITY           SKY/WX    TMP DP  RH WIND       PRES   REMARKS
MANISTIQUE     CLOUDY    60  60  98 N6        30.07F TC  16
6HR MIN TEMP:  60; 6HR MAX TEMP:  62; 6HR PCP:  0.03;

ESCANABA       PTCLDY    60  50  69 NW5       30.08F TC  16
6HR MIN TEMP:  60; 6HR MAX TEMP:  62; 6HR PCP:  0.01;

MENOMINEE      CLOUDY    60  60 100 N6        30.10S TC  16
6HR MIN TEMP:  60; 6HR MAX TEMP:  64;

SAWYER-GWINN   CLOUDY    59  59 100 N12       30.11F TC  15
MUNISING         N/A     64  61  90 N5        30.09S TC  18
6HR MIN TEMP:  63; 6HR MAX TEMP:  65; 6HR PCP:  0.01;

$$
MIZ001>003-009>011-084-240700-
WESTERN UPPER MICHIGAN

CITY           SKY/WX    TMP DP  RH WIND       PRES   REMARKS
IRON MOUNTAIN  CLOUDY    58  56  93 NW5       30.11S TC  14
6HR MIN TEMP:  57; 6HR MAX TEMP:  62;

HOUGHTON       CLOUDY    57  54  89 N5        30.16R TC  14
6HR MIN TEMP:  55; 6HR MAX TEMP:  65;

COPPER HARBOR    N/A     63  57  81 NE6       30.15S TC  17
6HR MIN TEMP:  58; 6HR MAX TEMP:  65;

IRONWOOD       CLOUDY    53  53 100 CALM      30.17F TC  12
6HR MIN TEMP:  50; 6HR MAX TEMP:  63;

$$

ABBREVIATIONS USED IN REMARKS
   TC - TEMPERATURE IN CELSIUS
  WCI - WIND CHILL INDEX
   HX - HEAT INDEX
  VSB - VISIBILITY